TimePST,TemperatureF,Dew PointF,Humidity,Sea Level PressureIn,VisibilityMPH,Wind Direction,Wind SpeedMPH,Gust SpeedMPH,PrecipitationIn,Events,Conditions,WindDirDegrees,DateUTC
12:56 AM,28.9,15.1,56,29.98,10.0,WNW,3.5,-,N/A,,Clear,290,2013-02-06 08:56:00
1:56 AM,27.0,14.0,58,29.98,10.0,West,3.5,-,N/A,,Clear,280,2013-02-06 09:56:00
2:56 AM,24.1,12.9,62,29.99,10.0,WSW,4.6,-,N/A,,Clear,250,2013-02-06 10:56:00
3:56 AM,21.9,14.0,72,30.00,10.0,South,5.8,-,N/A,,Clear,170,2013-02-06 11:56:00
4:56 AM,21.0,14.0,74,30.00,10.0,South,6.9,-,N/A,,Clear,170,2013-02-06 12:56:00
5:56 AM,19.9,12.9,74,30.01,10.0,SE,6.9,-,N/A,,Clear,140,2013-02-06 13:56:00
6:17 AM,19.4,12.2,74,30.11,10.0,SE,6.9,-,N/A,,Clear,140,2013-02-06 14:17:00
6:56 AM,21.9,15.1,75,30.03,10.0,South,4.6,-,N/A,,Clear,170,2013-02-06 14:56:00
7:56 AM,28.0,19.0,69,30.04,10.0,Calm,Calm,-,N/A,,Clear,0,2013-02-06 15:56:00
8:56 AM,37.0,24.1,59,30.05,10.0,SW,3.5,-,N/A,,Clear,230,2013-02-06 16:56:00
9:56 AM,41.0,27.0,57,30.06,10.0,Calm,Calm,-,N/A,,Clear,0,2013-02-06 17:56:00
10:56 AM,44.1,26.1,49,30.06,10.0,Variable,4.6,-,N/A,,Partly Cloudy,0,2013-02-06 18:56:00
11:56 AM,46.9,25.0,42,30.04,10.0,Calm,Calm,-,N/A,,Clear,0,2013-02-06 19:56:00
12:56 PM,48.9,21.9,35,30.02,10.0,SSE,4.6,-,N/A,,Clear,150,2013-02-06 20:56:00
1:56 PM,50.0,19.0,29,30.00,10.0,SE,4.6,-,N/A,,Clear,140,2013-02-06 21:56:00
2:56 PM,51.1,19.0,28,29.99,10.0,South,4.6,-,N/A,,Clear,180,2013-02-06 22:56:00
3:56 PM,51.1,14.0,23,29.98,10.0,SE,3.5,-,N/A,,Clear,130,2013-02-06 23:56:00
4:56 PM,50.0,12.9,23,29.96,10.0,ESE,4.6,-,N/A,,Scattered Clouds,110,2013-02-07 00:56:00
5:56 PM,43.0,12.9,30,29.96,10.0,ESE,4.6,-,N/A,,Scattered Clouds,110,2013-02-07 01:56:00
6:56 PM,35.1,12.9,40,29.96,10.0,ESE,6.9,-,N/A,,Scattered Clouds,120,2013-02-07 02:56:00
7:56 PM,36.0,16.0,44,29.96,10.0,SE,6.9,-,N/A,,Mostly Cloudy,140,2013-02-07 03:56:00
8:56 PM,35.1,14.0,42,29.96,10.0,SSE,6.9,-,N/A,,Mostly Cloudy,150,2013-02-07 04:56:00
9:56 PM,32.0,14.0,48,29.95,10.0,SSE,6.9,-,N/A,,Scattered Clouds,150,2013-02-07 05:56:00
10:56 PM,35.1,15.1,44,29.94,10.0,SSE,5.8,-,N/A,,Scattered Clouds,160,2013-02-07 06:56:00
11:56 PM,36.0,12.9,39,29.94,10.0,SSW,6.9,-,N/A,,Clear,210,2013-02-07 07:56:00